Temp
7 7 8 8 6 6 2 6 6 9 8 8 7 7 8 10 10 9 9 9 9 8 8 7 7 7 7 7 7 6 6 5 4 3 3 3 3 3 3 3 3 3 3 4
6 7 7 7 7 6 7 7 8 9 9 10 9 10 9 10 10 9 9 9 9 9 8 7 7 7 7 6 6 6 5 5 4 4 4 4 4 4 4 4 4 4 4 5
5 7 7 7 7 7 7 7 9 8 9 8 9 9 10 10 10 11 10 10 10 9 8 8 7 7 6 6 6 5 5 5 5 4 4 4 4 4 4 4 5 4 5 5
4 6 5 7 8 8 8 8 8 9 9 8 9 10 10 10 11 11 11 11 10 9 8 7 6 6 6 5 5 5 5 5 5 4 4 4 4 4 4 4 4 4 4 3
4 4 6 8 8 7 7 7 8 8 8 8 9 9 8 9 10 10 10 11 10 9 8 7 6 5 5 4 4 4 4 4 4 3 3 4 4 3 3 3 3 2 3 3
3 6 7 8 8 8 9 6 8 8 7 8 9 7 6 9 8 9 9 9 8 8 7 6 5 5 4 4 3 4 4 4 3 3 3 3 3 4 3 2 1 1 2 1
5 4 5 7 8 9 8 6 8 9 9 8 7 7 8 8 7 7 7 7 7 6 6 5 5 4 3 3 3 3 4 4 3 2 2 2 2 2 1 1 1 0 1 0
5 5 5 7 8 8 7 9 9 9 9 9 9 9 8 7 6 6 6 6 6 5 5 4 3 3 3 3 3 2 3 4 3 2 2 2 1 1 0 0 0 0 0 1
5 6 6 7 8 8 9 9 8 9 9 9 8 8 8 7 6 5 5 5 5 4 4 3 3 2 2 2 2 2 2 3 2 1 1 0 0 0 -0 -0 -0 0 1 0
6 7 7 7 7 8 8 8 8 8 8 8 8 7 7 7 6 5 5 5 4 4 3 3 2 1 1 1 2 2 2 2 1 1 0 -0 -1 -0 -0 0 0 0 0 0
5 5 6 6 7 7 7 7 7 7 7 7 7 6 6 6 6 5 4 4 4 4 3 2 2 1 1 1 1 1 1 1 1 -0 -0 -0 -1 -1 -0 -0 -1 -0 0 -0
5 6 6 6 6 6 6 6 6 6 6 6 6 6 6 6 5 5 4 4 4 3 3 2 2 1 1 1 1 1 1 0 -0 -1 -1 -2 -1 -0 -0 -1 -1 -0 -0 -0
6 7 7 6 6 6 6 6 5 5 5 5 5 5 5 5 5 5 4 4 3 3 3 2 2 1 1 1 0 0 -0 -0 -1 -1 -2 -1 -1 -0 0 -0 -0 -0 -0 -0
7 7 5 5 5 5 5 5 5 5 5 5 5 4 4 5 5 5 4 4 3 3 3 2 2 2 1 0 -0 -0 -1 -0 -0 -2 -2 -1 -0 0 -0 -0 -0 -0 -0 -0
5 5 5 5 5 5 5 5 5 4 4 4 4 4 4 4 4 4 4 3 3 3 3 3 2 2 1 1 0 -1 -1 -1 -2 -1 -1 -0 -0 -0 -0 -0 -1 -1 -0 -0
4 4 4 3 3 2 3 3 4 4 3 3 3 3 3 3 4 4 4 3 3 4 4 3 3 2 2 2 1 0 -1 -1 -1 -1 -1 -0 0 -0 -0 -0 -1 -0 -0 -0
3 2 2 2 2 1 1 1 1 1 2 2 2 2 3 3 3 3 3 3 3 3 3 2 3 2 2 2 2 2 1 0 0 -0 -0 0 0 1 0 -0 -0 -0 -0 -1
1 1 1 1 0 0 -0 -0 -0 0 -0 -1 1 1 2 2 2 3 3 3 3 2 2 2 2 2 1 1 1 2 1 0 0 1 0 0 1 0 0 -0 -0 -0 -0 -1
-0 -1 -1 -1 -1 -1 -2 -1 -1 -1 -1 -1 -1 -0 0 1 2 2 1 1 2 2 2 2 1 1 1 1 1 1 1 0 -0 -0 -0 -0 -0 -0 -0 -0 -0 -0 -1 -1
-2 -2 -2 -2 -2 -2 -2 -2 -2 -1 -1 -1 -1 -1 -1 -1 0 1 1 0 1 1 1 1 1 1 1 1 0 0 1 0 0 0 0 -0 -1 -0 -0 -0 -0 -1 -1 -1
-1 -2 -2 -2 -2 -2 -2 -2 -2 -2 -2 -2 -2 -2 -1 -1 -1 -1 -0 -0 -0 -0 0 0 0 1 1 1 -0 0 0 -0 -0 -0 -0 -0 -0 -1 -0 -1 -1 -1 -1 -1
-1 -1 -1 -1 -1 -2 -2 -2 -2 -3 -3 -3 -3 -2 -2 -2 -2 -1 -1 -1 -1 -0 -0 -0 -0 -0 0 -0 -0 -1 -1 -1 -1 -1 -1 -1 -1 -1 -1 -1 -1 -1 -1 -1
-1 -1 -1 -2 -2 -2 -2 -2 -3 -3 -3 -3 -3 -3 -3 -3 -3 -2 -2 -2 -2 -2 -1 -1 -1 -1 -1 -1 -1 -1 -1 -1 -1 -1 -1 -1 -1 -1 -1 -1 -2 -3 -2 -2
-1 -1 -2 -2 -2 -3 -3 -3 -3 -3 -4 -4 -3 -3 -3 -3 -3 -3 -3 -3 -3 -2 -2 -2 -2 -2 -2 -2 -2 -2 -2 -2 -2 -2 -2 -2 -2 -2 -2 -2 -1 -2 -2 -2
-1 -1 -2 -2 -2 -3 -3 -3 -3 -4 -4 -4 -4 -4 -4 -4 -4 -3 -3 -3 -3 -3 -3 -3 -3 -3 -3 -3 -3 -3 -3 -3 -3 -3 -3 -3 -2 -2 -2 -2 -2 -2 -2 -2
-1 -2 -2 -2 -3 -3 -3 -3 -4 -4 -4 -4 -4 -4 -4 -4 -4 -4 -4 -3 -3 -3 -3 -3 -3 -3 -3 -3 -3 -3 -3 -3 -3 -3 -3 -3 -3 -3 -3 -2 -2 -3 -2 -3
-2 -2 -3 -3 -3 -4 -4 -4 -4 -4 -4 -4 -4 -4 -4 -4 -4 -4 -4 -4 -4 -4 -3 -3 -3 -3 -3 -4 -4 -4 -4 -4 -4 -4 -4 -3 -3 -3 -3 -3 -3 -3 -3 -3
Height
1425 1425 1427 1429 1438 1443 1458 1445 1453 1444 1445 1439 1442 1442 1441 1443 1448 1450 1454 1456 1458 1461 1463 1466 1468 1469 1471 1472 1473 1473 1472 1472 1472 1471 1471 1472 1472 1473 1473 1474 1475 1475 1476 1478
1434 1430 1429 1434 1437 1440 1440 1441 1441 1439 1440 1434 1438 1440 1442 1444 1447 1449 1452 1454 1456 1459 1461 1463 1465 1468 1469 1470 1471 1470 1471 1471 1471 1471 1471 1472 1471 1472 1473 1473 1474 1475 1476 1477
1440 1433 1432 1438 1434 1436 1438 1439 1437 1442 1437 1435 1439 1439 1440 1444 1446 1448 1450 1452 1453 1455 1458 1461 1463 1465 1466 1467 1468 1469 1469 1470 1470 1470 1470 1470 1470 1472 1472 1473 1474 1475 1476 1478
1447 1440 1448 1432 1429 1431 1435 1436 1436 1436 1435 1434 1435 1438 1440 1442 1444 1446 1447 1448 1450 1453 1456 1459 1460 1462 1464 1465 1466 1467 1467 1468 1468 1469 1470 1470 1472 1472 1473 1474 1475 1476 1477 1478
1444 1447 1437 1431 1430 1433 1434 1436 1433 1435 1436 1435 1437 1439 1441 1442 1443 1443 1444 1444 1446 1450 1454 1456 1458 1460 1462 1463 1464 1465 1466 1466 1468 1468 1469 1471 1472 1472 1473 1474 1475 1477 1478 1480
1444 1439 1434 1429 1429 1428 1429 1440 1430 1432 1435 1436 1438 1444 1442 1440 1441 1441 1442 1443 1445 1449 1452 1454 1455 1457 1459 1461 1462 1463 1465 1466 1467 1467 1469 1471 1472 1472 1473 1475 1476 1478 1479 1480
1440 1447 1438 1429 1428 1428 1435 1442 1429 1431 1434 1436 1439 1441 1440 1440 1441 1442 1443 1444 1446 1448 1450 1452 1453 1455 1457 1458 1460 1461 1463 1465 1465 1467 1468 1470 1471 1472 1474 1476 1477 1478 1480 1482
1439 1441 1444 1428 1430 1432 1432 1429 1430 1433 1435 1436 1438 1439 1440 1440 1441 1442 1443 1443 1445 1446 1448 1449 1451 1452 1454 1456 1458 1459 1461 1463 1464 1465 1467 1468 1471 1472 1474 1477 1478 1480 1481 1482
1438 1436 1430 1429 1430 1430 1431 1432 1433 1433 1435 1436 1437 1439 1440 1439 1440 1440 1441 1441 1443 1445 1446 1447 1448 1450 1451 1453 1456 1457 1458 1460 1462 1464 1466 1468 1470 1472 1474 1477 1479 1480 1480 1482
1434 1431 1430 1431 1432 1432 1432 1432 1434 1435 1436 1437 1438 1438 1438 1438 1437 1437 1438 1439 1441 1442 1443 1444 1445 1447 1449 1451 1452 1454 1455 1457 1460 1462 1465 1468 1470 1473 1475 1477 1478 1479 1480 1482
1434 1433 1432 1433 1433 1434 1434 1435 1435 1435 1436 1437 1437 1437 1437 1436 1436 1436 1437 1437 1439 1440 1441 1441 1442 1444 1445 1447 1449 1451 1453 1455 1458 1461 1464 1467 1470 1472 1475 1476 1478 1480 1481 1482
1435 1431 1432 1432 1434 1434 1435 1435 1436 1436 1436 1436 1436 1436 1436 1435 1435 1435 1435 1436 1436 1437 1438 1439 1439 1441 1442 1444 1446 1448 1451 1453 1457 1460 1463 1466 1468 1470 1472 1474 1476 1478 1479 1480
1429 1430 1431 1432 1433 1434 1434 1435 1435 1436 1435 1435 1435 1435 1434 1434 1433 1433 1433 1434 1434 1435 1436 1437 1437 1438 1440 1441 1444 1446 1449 1452 1455 1458 1461 1464 1466 1469 1471 1473 1474 1476 1477 1478
1430 1430 1432 1432 1433 1434 1434 1435 1435 1435 1435 1435 1434 1434 1433 1433 1432 1432 1432 1432 1432 1433 1434 1434 1435 1436 1437 1439 1441 1444 1448 1451 1454 1456 1459 1462 1465 1467 1469 1471 1472 1474 1475 1476
1430 1430 1430 1431 1432 1433 1433 1434 1434 1434 1434 1434 1433 1432 1432 1431 1430 1430 1430 1430 1430 1430 1431 1431 1432 1434 1435 1437 1440 1443 1446 1448 1451 1455 1458 1460 1463 1464 1466 1468 1469 1470 1471 1472
1430 1431 1431 1431 1432 1432 1432 1432 1431 1431 1431 1431 1430 1430 1430 1429 1428 1428 1428 1427 1427 1427 1428 1429 1430 1432 1433 1435 1437 1440 1443 1446 1450 1452 1455 1457 1459 1460 1462 1464 1465 1466 1467 1468
1430 1430 1430 1430 1431 1431 1431 1431 1430 1429 1429 1428 1427 1426 1426 1425 1425 1425 1425 1424 1424 1424 1425 1426 1427 1429 1430 1432 1435 1437 1440 1443 1446 1448 1450 1452 1454 1456 1458 1460 1461 1462 1463 1464
1428 1428 1428 1428 1429 1429 1429 1428 1427 1426 1425 1424 1423 1422 1422 1421 1421 1420 1420 1420 1419 1419 1420 1422 1424 1425 1426 1428 1430 1433 1436 1438 1440 1443 1445 1447 1449 1451 1453 1454 1456 1457 1458 1459
1427 1427 1427 1427 1427 1427 1426 1425 1424 1423 1421 1420 1420 1419 1418 1417 1416 1416 1415 1414 1414 1414 1417 1418 1419 1420 1421 1423 1425 1427 1429 1432 1434 1436 1439 1441 1443 1445 1446 1448 1450 1451 1453 1453
1426 1426 1426 1426 1426 1425 1424 1423 1421 1420 1418 1417 1416 1415 1414 1413 1412 1411 1410 1409 1410 1411 1412 1414 1414 1414 1415 1417 1419 1420 1423 1425 1426 1429 1431 1433 1435 1437 1440 1442 1444 1445 1446 1447
1427 1427 1427 1426 1425 1424 1423 1422 1421 1419 1417 1416 1414 1412 1410 1409 1408 1407 1406 1406 1406 1406 1407 1408 1408 1409 1409 1410 1412 1413 1414 1416 1418 1420 1421 1424 1427 1429 1432 1435 1436 1438 1439 1440
1427 1427 1426 1425 1425 1424 1422 1421 1419 1418 1417 1415 1413 1411 1409 1407 1405 1404 1403 1402 1402 1402 1402 1402 1402 1402 1403 1403 1404 1404 1406 1408 1409 1411 1413 1415 1417 1420 1422 1426 1428 1430 1432 1433
1427 1426 1426 1425 1424 1423 1422 1420 1419 1417 1416 1414 1412 1410 1408 1405 1403 1401 1401 1400 1398 1397 1397 1396 1395 1395 1396 1395 1396 1396 1397 1399 1400 1402 1404 1406 1409 1411 1414 1416 1418 1420 1423 1425
1426 1426 1425 1424 1423 1422 1421 1420 1418 1417 1415 1413 1411 1409 1407 1405 1403 1401 1399 1397 1395 1394 1392 1391 1390 1389 1389 1388 1388 1389 1390 1391 1392 1394 1396 1398 1400 1402 1405 1408 1410 1412 1414 1415
1426 1425 1424 1423 1422 1420 1419 1418 1417 1416 1414 1412 1410 1408 1406 1404 1402 1400 1398 1396 1393 1391 1389 1387 1385 1384 1383 1383 1383 1383 1384 1384 1385 1386 1387 1389 1391 1393 1396 1399 1401 1404 1406 1408
1425 1424 1423 1422 1420 1419 1418 1417 1415 1414 1412 1411 1409 1407 1405 1402 1400 1398 1396 1393 1391 1388 1386 1384 1382 1380 1379 1378 1378 1377 1377 1378 1378 1379 1380 1381 1383 1385 1387 1390 1392 1394 1396 1399
1423 1423 1422 1421 1419 1418 1417 1415 1414 1412 1410 1408 1406 1404 1402 1400 1397 1395 1393 1391 1388 1386 1383 1381 1379 1377 1375 1373 1373 1372 1372 1372 1373 1373 1373 1374 1376 1377 1379 1381 1383 1385 1387 1390
Wind_Speed
6 3 6 10 10 8 4 4 5 3 6 6 8 8 15 21 21 21 22 22 21 20 19 17 15 13 10 7 5 4 4 5 5 5 4 5 5 6 6 6 6 5 5 5
6 3 5 5 9 7 3 3 3 1 4 5 8 15 14 21 21 21 23 23 22 21 19 19 16 13 10 8 6 5 4 4 2 4 6 6 7 7 7 8 8 8 8 8
2 3 5 2 10 10 4 4 4 4 5 5 4 7 16 16 15 19 22 24 25 24 21 18 16 13 10 9 7 6 6 6 5 7 8 9 8 8 10 10 9 9 8 8
3 3 0 2 1 7 7 6 5 3 2 4 8 7 8 8 13 15 17 23 27 25 21 17 16 15 12 11 9 8 7 8 8 9 10 10 9 8 8 9 9 8 8 10
4 2 3 1 2 5 6 6 6 6 5 7 11 6 2 5 7 9 11 16 22 24 20 17 16 15 13 13 11 9 9 9 11 11 11 10 9 8 9 10 10 12 10 8
2 3 1 0 1 3 4 3 6 8 6 5 5 1 4 7 6 8 10 10 15 20 17 16 16 15 14 13 12 10 9 10 10 10 10 10 11 9 9 11 13 13 13 13
1 2 4 2 1 1 3 4 5 14 11 7 3 4 0 4 6 7 8 11 13 14 14 15 16 16 15 14 13 11 10 9 10 11 10 11 11 11 12 13 14 15 15 14
1 2 1 3 3 2 3 6 11 12 6 5 5 4 2 6 7 8 10 12 12 13 14 15 16 16 15 14 13 13 13 11 12 12 14 13 13 14 14 14 15 15 14 12
4 3 2 1 1 3 5 7 5 7 7 6 6 6 4 4 7 8 9 11 13 14 14 16 17 17 16 14 13 13 13 13 14 14 15 15 15 15 17 16 14 13 12 10
2 0 2 5 6 6 5 5 4 5 5 4 5 6 7 8 10 12 11 13 13 14 14 15 16 17 17 15 14 15 16 16 16 15 16 16 16 16 16 15 14 12 10 8
2 4 5 3 4 5 6 5 4 3 2 2 3 4 5 7 8 9 11 13 14 13 12 13 14 16 17 17 17 18 18 18 19 18 17 18 18 16 15 13 10 8 8 7
4 4 2 4 6 5 3 3 2 1 1 2 3 3 5 6 6 8 10 11 13 12 11 11 12 14 16 17 18 19 20 21 22 21 19 20 20 18 17 14 12 11 10 9
5 5 4 9 7 3 1 1 2 3 3 3 4 4 5 6 6 7 8 10 13 11 10 10 12 13 15 17 18 20 22 23 23 20 23 22 20 17 15 14 14 12 11 10
9 9 6 9 4 4 2 0 2 2 3 4 4 4 4 6 6 7 8 8 10 12 12 11 11 12 13 16 19 21 22 21 22 23 22 20 18 16 15 13 13 13 12 11
5 5 4 7 7 5 4 4 5 5 5 6 7 7 8 7 8 8 8 9 11 14 14 13 13 12 14 16 20 22 24 24 24 22 20 19 18 17 16 16 16 15 14 13
4 2 3 4 5 6 6 8 8 8 8 8 9 9 10 10 10 11 10 11 14 15 15 16 14 12 15 17 20 22 23 22 22 21 22 22 21 20 18 18 17 16 16 14
4 4 3 3 4 6 6 7 8 8 9 11 12 13 14 13 13 12 12 13 14 14 14 15 15 14 16 20 21 22 23 23 22 22 24 23 22 21 20 19 18 17 16 15
3 5 5 6 8 9 9 10 11 11 12 13 14 12 13 13 14 15 16 17 16 17 17 15 15 18 18 21 26 27 25 25 26 25 24 25 25 23 22 21 19 18 17 17
3 4 5 6 7 7 8 9 9 10 10 12 13 13 13 14 15 18 19 19 18 18 16 15 16 19 21 21 24 29 30 30 29 28 27 26 28 26 25 23 22 20 19 20
2 2 1 1 2 2 3 5 6 7 9 10 11 11 11 11 12 13 13 13 13 14 14 15 17 19 20 22 23 27 31 33 33 32 31 30 30 29 27 25 24 22 21 21
5 4 4 3 3 3 4 6 6 7 8 8 8 9 10 10 10 11 10 10 9 13 14 16 19 20 22 23 25 28 30 33 35 37 36 35 34 32 30 28 26 24 23 22
3 5 5 5 5 5 6 7 7 7 7 8 8 8 8 8 8 8 9 10 11 13 15 16 17 19 22 23 26 30 31 33 34 36 38 37 36 36 32 29 27 25 24 23
3 4 4 5 4 6 8 8 7 8 8 8 8 9 9 10 10 8 7 8 11 13 15 15 17 19 21 23 25 27 30 33 35 35 35 35 35 35 37 36 34 32 28 24
2 4 5 6 6 6 6 7 7 8 8 9 10 11 10 9 7 8 9 10 11 12 12 14 15 15 18 21 24 25 26 27 29 32 33 32 33 34 34 35 36 32 33 30
3 5 6 7 7 6 7 8 8 8 7 8 8 9 10 11 11 11 10 10 10 10 11 12 13 14 14 17 19 21 22 23 24 25 27 29 30 31 30 31 32 32 32 31
5 6 7 7 7 7 8 8 8 9 10 9 9 10 10 10 11 12 12 12 12 12 12 11 11 12 13 14 16 17 18 19 20 21 22 24 25 27 28 29 30 30 30 31
7 7 6 7 7 8 9 9 9 10 11 12 12 12 13 13 13 13 14 14 14 14 13 13 13 13 13 14 15 16 17 18 19 20 21 22 23 25 26 27 28 29 30 32
Wind_Direction
39 126 155 173 172 169 145 162 143 253 206 219 200 179 174 176 175 175 182 188 198 204 207 210 213 215 221 229 246 265 260 265 274 274 222 211 197 195 195 196 196 186 172 167
42 67 155 158 175 157 130 142 234 261 234 188 176 163 158 172 179 188 197 206 211 215 214 216 218 219 223 231 236 237 226 238 223 211 188 183 178 179 180 175 171 165 161 162
18 52 87 128 199 184 182 184 162 185 235 154 158 178 180 184 195 210 215 218 219 219 219 220 222 227 235 231 224 220 205 202 211 195 178 167 159 169 163 161 158 156 154 164
133 40 176 272 33 177 175 190 209 222 202 174 163 169 180 200 217 223 227 230 227 222 215 216 221 225 225 221 219 215 206 207 199 184 167 151 157 153 159 160 156 155 162 146
133 149 292 254 205 152 163 236 196 173 137 114 123 123 211 210 222 234 236 231 228 215 213 217 225 223 221 219 211 206 207 205 199 187 182 175 167 178 183 177 168 151 140 146
103 113 182 314 142 177 115 287 179 153 155 137 122 158 259 244 242 234 224 213 202 200 211 223 222 220 220 216 209 198 204 206 203 199 196 193 176 171 175 165 156 153 154 140
60 117 292 266 169 185 168 240 150 157 151 142 146 193 336 226 222 205 201 197 196 207 218 220 219 215 214 211 207 194 203 225 213 207 201 191 183 169 167 165 161 153 150 146
84 75 328 159 71 179 210 114 133 134 136 158 171 161 308 250 237 225 221 214 216 220 220 221 222 221 219 214 213 204 199 215 228 209 197 189 184 171 169 169 163 158 157 155
169 221 251 129 234 118 144 130 110 147 196 209 192 207 214 302 246 242 240 235 228 226 224 223 224 226 226 219 219 210 203 210 212 200 188 183 184 178 169 169 170 165 162 164
47 336 112 94 104 101 97 100 98 138 162 190 223 229 242 254 254 258 245 234 229 228 229 233 230 227 225 224 223 213 202 199 195 190 183 184 178 178 179 177 176 177 177 181
316 22 101 98 117 128 119 123 122 133 173 209 236 251 259 269 268 257 247 236 230 235 241 240 234 227 223 222 219 211 203 195 193 187 186 186 183 185 185 184 187 195 197 202
224 203 197 190 153 139 128 95 82 124 240 267 280 279 280 279 268 259 252 241 234 238 239 235 231 225 222 218 215 209 203 196 192 190 192 192 192 189 190 193 202 204 207 214
174 158 192 166 172 175 200 295 299 290 281 279 281 292 296 294 285 262 255 252 245 247 246 237 234 228 220 217 214 209 204 196 193 198 197 194 195 199 207 207 207 211 217 223
156 157 153 189 204 188 185 258 327 315 288 272 280 294 303 305 298 273 267 284 262 248 248 246 242 236 227 218 209 203 201 201 208 203 199 200 203 206 212 219 226 226 228 235
168 215 231 188 192 208 237 275 292 291 276 270 270 278 286 291 295 291 272 270 259 249 249 245 242 233 224 212 203 201 201 204 207 204 206 208 209 216 222 225 228 229 234 240
223 238 216 212 224 245 259 261 269 276 278 278 279 279 278 279 279 279 275 262 257 256 254 248 247 235 224 218 210 205 204 207 207 212 213 214 217 220 224 228 230 233 240 245
205 208 210 222 247 269 280 282 281 280 280 282 283 283 280 279 278 279 276 271 264 264 260 256 253 244 234 222 219 213 208 209 214 219 222 223 225 227 230 233 237 241 246 247
233 240 251 259 265 276 279 279 280 282 286 290 291 284 281 281 283 284 283 271 259 253 253 255 251 245 242 233 222 220 223 221 222 226 229 229 230 231 233 236 240 245 248 249
266 260 262 277 281 284 287 286 289 292 293 288 289 288 284 285 286 287 282 266 255 252 252 258 256 248 243 242 236 230 227 228 232 233 233 235 234 235 236 239 243 247 248 249
80 63 42 278 272 289 308 323 323 315 306 300 295 293 291 287 284 283 277 265 255 254 248 248 254 253 249 242 240 238 235 235 235 238 239 235 235 237 239 241 244 246 248 252
79 71 60 52 37 19 5 1 354 353 352 336 322 313 306 300 292 286 280 270 258 257 257 251 247 248 250 249 243 242 241 240 240 240 240 240 237 232 238 240 243 247 249 253
53 39 31 19 12 2 1 357 351 345 344 346 352 347 333 319 306 296 289 284 272 265 262 260 255 252 251 251 249 248 247 246 246 246 246 245 243 240 228 234 240 246 251 253
39 22 15 7 358 354 353 350 347 345 344 345 344 345 351 352 344 333 310 294 290 285 277 271 266 258 253 251 250 249 250 250 250 252 253 251 250 247 243 238 230 232 233 242
9 1 357 356 353 347 340 345 345 345 345 345 343 340 338 340 341 337 328 319 310 300 296 284 273 270 258 252 251 251 253 255 256 256 256 255 254 251 248 246 245 243 239 232
337 343 342 341 338 341 345 346 346 341 339 339 339 339 336 334 333 334 331 327 326 317 312 300 288 275 268 261 260 258 257 257 258 260 257 253 253 251 251 249 247 246 247 246
326 334 332 331 333 338 341 342 340 340 340 340 337 334 336 333 329 326 325 324 325 322 316 311 304 292 278 269 265 264 263 261 259 259 258 254 251 250 250 251 248 245 244 241
314 319 320 322 324 328 330 332 334 335 333 333 335 334 333 331 328 326 324 323 321 318 316 313 308 301 294 284 274 269 265 263 260 259 258 256 252 250 250 248 245 244 241 242